Volver al catálogo

DELTA 1 DEB

ActivoSSO
NORAD 12189·DEBRIS·🇺🇸 United States

Lanzado Mar 5, 1978 desde Vandenberg Space Force Base

Loading…

Próximos Pases (próximas 24 horas)

TLE

ActualizadoSource: Space-Track

Época: Sep 14, 2026, 21:44 UTC

1 12189U 78026AE  26257.90624084  .00000210  00000-0  18557-3 0  9991
2 12189  98.7599 243.4994 0068501 103.1441 286.9712 13.94002603647256

Sigue DELTA 1 DEB en tiempo real con AllMySat

Download on the App Store